Theta_e
320 324 326 327 327 323 324 324 321 323 325 323 318 319 321 317 314 318 317 318 322 322 327 332 328 329 336 339 345 346 346 348 348 347 348 347 348 349 349 350 350 350 349 347 346 347 348 349 349 349 350 351 352 352 353 354 354 355 355 355 355 355 355
320 319 325 326 327 327 323 320 321 324 325 324 319 316 318 317 316 321 321 316 314 316 325 336 333 330 335 339 342 345 346 348 348 348 347 346 348 348 349 350 350 349 350 347 347 348 349 349 349 350 350 351 351 352 353 353 354 355 355 355 355 355 355
322 320 321 321 324 327 324 322 325 324 320 318 318 316 317 317 317 319 321 320 316 315 323 333 328 327 335 340 342 345 346 346 347 347 347 348 347 348 349 350 350 350 349 347 347 348 348 350 349 350 351 351 351 352 352 353 354 355 354 355 356 355 355
320 321 318 315 317 323 326 324 325 327 322 318 318 318 317 318 321 320 318 317 317 320 328 330 327 328 333 340 344 344 344 347 347 347 348 347 348 348 349 349 350 350 349 347 347 348 348 349 350 350 351 351 351 352 353 353 354 354 354 355 355 356 355
320 323 321 316 317 319 321 319 319 320 321 320 319 318 317 321 325 325 320 314 317 331 338 332 331 331 329 339 347 345 343 344 346 346 348 347 348 349 349 349 350 349 349 348 347 348 349 348 350 351 352 352 352 352 352 353 353 353 354 354 355 355 355
322 324 321 321 322 321 320 319 318 318 318 318 316 317 319 319 321 326 323 313 317 337 339 329 334 335 328 334 342 343 343 343 344 347 347 347 348 348 348 349 349 350 349 349 347 347 349 348 350 350 352 352 352 352 352 353 353 353 353 354 354 355 355
320 320 321 321 322 324 325 322 321 322 322 317 314 315 318 316 316 324 323 313 320 343 346 333 331 330 326 330 338 342 343 342 343 345 346 348 348 348 349 348 349 350 350 349 348 347 349 349 350 351 351 352 352 352 352 353 353 353 353 354 353 355 354
322 321 322 322 322 324 325 324 322 322 321 319 319 323 324 318 314 318 318 313 320 344 358 343 335 333 327 328 335 341 342 342 344 345 346 348 348 348 349 348 349 349 349 350 350 349 349 348 350 351 351 352 353 353 353 353 354 353 353 353 353 354 354
331 321 320 327 329 325 320 322 324 323 323 323 323 326 324 318 314 315 315 313 319 344 361 348 340 340 335 330 331 336 340 343 344 344 346 348 348 349 350 348 350 351 350 352 352 351 348 348 350 351 351 352 352 353 353 353 353 353 353 353 352 353 354
331 324 323 326 325 320 317 321 323 323 324 321 320 322 317 316 319 317 313 313 320 338 345 336 335 340 339 336 330 328 335 341 344 346 346 348 350 350 350 349 350 352 352 353 354 351 349 349 350 350 351 352 352 352 353 353 353 353 353 354 353 353 353
322 321 320 318 317 316 316 319 320 320 322 322 321 320 315 321 324 318 316 319 319 325 329 328 329 331 338 342 334 327 331 339 345 348 348 350 350 350 350 351 350 353 354 353 353 352 349 349 350 351 351 351 352 353 353 353 354 353 353 354 354 353 353
315 316 316 314 314 315 315 316 317 318 323 324 322 316 318 328 323 314 326 334 320 317 326 328 328 332 338 346 340 330 329 338 346 349 350 351 351 350 350 351 352 354 354 354 354 352 350 349 350 350 351 352 352 353 353 353 353 353 354 354 353 354 354
313 313 313 312 313 314 315 317 319 320 323 325 322 318 324 331 319 315 337 347 326 321 329 328 328 332 334 341 342 332 331 342 348 349 352 351 350 351 351 351 353 353 353 354 354 353 350 349 350 351 351 352 352 353 353 353 354 354 354 353 354 354 354
312 311 311 312 314 316 316 319 321 323 325 327 325 324 327 331 326 327 343 347 334 327 326 327 333 341 339 340 344 338 339 348 351 350 351 350 350 351 351 352 352 352 353 353 353 353 352 350 350 351 351 352 352 353 353 354 354 354 353 354 354 354 354
312 311 313 314 314 315 317 320 325 329 330 328 323 324 327 327 329 334 339 338 336 334 336 342 352 360 352 345 347 347 344 348 351 350 351 350 351 351 350 350 352 351 353 353 353 355 353 350 350 350 351 352 352 353 354 354 354 355 355 354 354 354 354
313 312 313 313 313 315 321 325 328 333 335 331 326 332 337 332 329 333 334 331 334 341 347 351 354 359 357 352 355 354 348 347 350 350 350 351 350 350 351 351 352 352 353 353 354 354 352 349 349 350 351 352 352 353 354 354 355 355 355 355 355 355 355
315 313 311 313 317 323 331 331 327 331 338 340 342 345 345 342 340 338 332 331 340 345 347 349 349 347 347 348 351 352 350 350 351 348 349 351 350 349 350 351 352 351 351 351 352 352 350 349 349 350 350 351 352 353 354 355 355 355 356 356 355 356 355
316 312 311 320 331 334 336 334 326 326 334 340 345 347 344 342 345 343 339 343 348 346 347 349 348 344 344 349 358 362 358 353 350 349 349 349 349 349 349 350 350 350 350 351 349 350 350 349 350 350 351 351 352 352 353 355 356 356 357 357 356 356 356
316 314 318 333 346 340 332 331 326 325 328 332 338 345 343 341 342 343 345 349 348 350 353 343 339 348 355 360 366 373 368 356 349 348 349 349 349 349 348 349 349 349 351 351 349 348 348 350 350 350 351 352 353 353 354 355 356 357 357 358 357 358 357
317 318 321 331 339 333 328 330 327 325 327 328 333 344 345 341 340 342 345 347 346 353 360 351 346 353 360 363 362 363 366 364 353 345 346 346 345 347 348 349 350 351 350 348 348 348 349 349 350 350 351 353 354 354 355 355 356 358 358 358 358 359 359
318 320 318 321 330 335 335 334 329 324 327 328 330 339 345 342 339 340 344 347 347 353 364 366 362 357 361 368 367 360 361 366 364 360 360 355 351 349 349 347 346 345 345 345 347 347 348 349 350 350 351 353 354 356 356 357 357 358 358 360 360 359 360
318 317 317 322 334 344 340 332 326 323 327 327 326 336 346 343 337 337 342 346 348 351 357 365 368 367 370 376 372 363 361 364 366 370 373 371 369 367 361 355 348 344 344 347 348 348 349 349 350 350 351 352 355 356 358 358 357 358 359 360 361 361 361
314 313 316 321 332 339 334 328 326 327 329 327 329 340 350 343 334 335 339 344 347 349 353 359 366 372 376 377 370 364 362 363 364 367 368 368 370 368 364 361 357 352 350 350 351 351 351 351 352 352 353 354 355 357 358 358 359 359 360 360 361 362 363
313 314 316 320 329 335 329 326 329 330 328 329 337 349 352 340 332 333 337 341 345 347 351 357 363 369 374 375 368 361 359 360 361 364 366 365 366 364 361 360 361 359 358 358 359 359 358 357 356 356 356 357 357 358 359 359 360 360 360 360 361 362 363
315 317 316 317 327 333 328 326 331 330 330 336 345 350 344 335 331 333 333 337 341 343 348 354 359 363 366 365 362 358 357 358 358 359 360 362 362 362 362 362 362 362 362 362 362 362 363 362 359 358 359 360 361 362 361 360 361 360 360 361 361 362 363
315 316 313 317 328 331 327 329 332 331 334 342 342 341 337 332 331 332 332 334 336 339 345 351 353 354 355 357 358 357 356 357 358 357 358 359 359 361 362 362 361 360 360 360 360 360 363 364 362 361 360 361 362 363 362 362 363 362 362 362 362 362 363
316 314 316 323 330 330 328 331 332 330 332 334 332 333 334 331 329 330 330 331 334 336 340 344 346 347 349 351 354 355 355 356 356 357 358 358 359 360 360 361 360 359 358 358 357 358 361 364 364 363 362 362 363 362 361 362 363 362 363 363 363 363 362
318 319 323 325 326 328 330 332 331 328 327 327 328 330 331 330 329 329 329 329 332 335 337 338 340 343 345 348 350 352 354 356 356 358 358 358 359 359 358 358 358 356 355 356 356 356 360 363 364 363 363 365 365 364 364 363 362 363 363 362 362 363 363
316 319 322 322 324 328 329 328 328 326 324 325 326 327 328 328 328 328 328 327 329 332 334 335 336 339 341 344 347 349 352 354 356 358 358 356 357 357 356 356 356 355 354 354 354 354 357 361 362 362 364 364 364 364 366 366 365 365 364 361 360 362 362
315 317 318 316 321 327 326 325 326 326 324 324 326 326 327 326 325 325 326 326 327 331 333 334 335 335 337 340 343 346 349 352 354 356 357 356 355 354 355 355 354 354 354 353 353 353 354 356 358 360 362 363 361 362 366 368 368 367 366 364 359 359 361
315 318 317 313 315 323 325 324 324 322 321 322 324 325 326 325 323 324 325 325 326 328 331 333 333 333 334 336 339 342 345 348 351 353 355 356 355 354 354 354 353 352 352 351 351 351 351 353 353 354 358 360 361 361 364 367 368 369 369 367 361 358 360
314 315 314 312 315 322 325 325 325 323 321 321 322 323 324 323 323 324 325 326 328 328 329 332 332 331 330 333 336 339 341 344 347 349 352 354 355 353 352 353 353 352 350 349 350 349 350 352 351 351 354 358 360 361 362 365 367 369 370 369 364 360 360
311 311 312 314 316 319 320 322 323 323 323 322 321 321 322 322 322 324 326 327 328 329 329 330 331 331 330 331 334 337 338 340 343 347 349 349 349 350 351 352 352 352 349 349 349 350 351 352 351 351 353 355 357 359 360 362 365 367 370 369 366 361 359
312 312 312 314 314 313 314 318 319 319 321 322 320 319 320 321 321 324 326 327 328 328 327 327 329 331 331 330 332 335 337 339 341 344 347 346 345 348 351 352 352 351 350 350 350 351 351 352 351 351 353 354 356 357 359 361 363 366 368 369 367 363 361
312 311 311 312 312 310 311 316 318 316 319 322 320 318 320 320 320 321 324 326 329 329 326 324 326 329 330 331 332 335 336 337 337 340 344 344 345 348 351 351 351 350 350 351 351 351 352 352 352 353 353 354 355 355 356 358 360 364 367 368 366 364 362
310 310 310 310 310 310 311 314 316 316 319 322 321 319 319 319 319 320 320 323 327 329 328 324 323 326 328 329 332 335 337 335 336 338 342 343 345 348 350 351 351 350 350 352 352 351 352 352 352 353 353 353 354 355 354 356 359 362 365 366 366 365 364
309 309 309 309 310 310 310 311 313 315 319 322 322 321 320 320 320 319 318 320 323 326 327 325 323 324 326 327 330 334 334 334 337 340 342 342 344 346 348 349 350 351 351 352 352 351 351 351 351 351 352 353 354 355 355 357 359 361 363 365 366 365 365
Wind_Speed
10 13 10 10 11 6 4 7 10 7 5 5 4 4 1 3 4 6 3 4 4 2 6 3 5 8 12 16 19 21 20 19 16 14 14 15 15 15 16 17 18 18 17 19 24 27 29 32 34 36 38 40 41 40 40 41 41 42 43 43 43 43 42
10 9 9 10 12 8 4 6 8 4 5 4 4 3 3 2 5 5 3 5 5 3 6 3 6 8 9 13 17 19 19 18 18 17 16 18 18 17 19 19 17 17 16 18 23 28 31 34 36 38 40 41 42 42 42 42 41 41 42 43 43 43 42
8 6 7 9 9 12 9 6 7 7 4 6 6 4 5 5 4 5 4 5 5 5 5 5 7 9 9 12 15 16 18 17 17 18 18 20 19 17 17 16 14 14 15 18 23 28 32 35 36 37 39 39 39 41 42 43 43 43 43 42 42 41 41
9 7 5 7 8 11 11 6 7 7 6 6 6 4 3 4 4 4 4 4 5 6 6 8 11 10 10 12 12 14 16 16 16 17 17 18 17 16 15 15 15 16 17 20 26 30 31 34 35 35 36 37 38 39 39 41 42 42 42 41 41 41 41
7 4 4 6 7 7 8 7 7 7 4 3 5 3 3 4 4 3 3 5 6 5 5 9 11 10 10 13 13 14 15 16 17 18 18 17 17 17 16 16 16 17 17 19 26 30 30 31 32 33 34 36 37 37 38 39 39 39 39 40 41 40 40
4 7 7 4 3 4 5 6 7 8 5 4 6 6 2 4 4 4 4 6 7 5 5 8 10 10 10 12 14 13 14 17 18 18 19 19 18 18 18 17 17 17 16 18 23 27 28 28 30 32 34 34 35 36 37 38 38 38 40 41 40 40 39
8 17 17 13 12 10 7 6 7 8 5 5 7 8 4 4 4 3 2 5 8 6 6 8 9 10 9 11 13 13 13 16 18 19 20 19 19 19 19 18 17 16 16 17 21 24 26 28 30 32 33 33 34 36 37 37 37 39 40 41 41 40 39
9 15 13 11 11 6 4 5 4 6 8 8 6 5 5 4 5 4 3 7 9 6 4 6 7 7 5 7 11 13 13 13 16 19 18 17 18 19 18 17 16 15 15 15 16 18 22 26 28 31 32 33 34 35 36 36 38 40 40 40 40 39 38
6 7 4 3 4 4 3 5 5 7 10 11 6 2 3 5 8 8 6 9 9 5 3 3 3 4 3 6 10 13 13 13 15 16 14 15 17 17 17 16 15 14 14 13 14 15 19 24 27 30 32 32 34 35 36 37 38 39 39 38 38 38 38
4 5 3 3 5 6 7 7 8 10 9 10 8 4 3 7 7 8 8 10 8 7 7 7 6 4 5 7 10 12 13 14 14 13 13 14 15 15 17 16 15 16 15 15 15 15 19 24 27 29 31 32 33 34 36 38 38 38 38 38 38 39 39
6 6 8 9 8 8 10 12 14 15 13 11 7 6 7 6 5 6 9 7 7 11 13 12 10 8 7 8 8 10 12 13 13 13 14 15 15 15 15 15 15 16 15 16 17 17 20 25 28 29 31 32 33 34 35 37 37 37 38 38 38 39 38
9 10 14 16 13 11 13 14 17 18 16 11 8 10 9 7 6 7 7 4 7 14 17 14 11 9 9 9 9 11 13 12 12 13 14 15 15 14 14 15 16 17 17 17 17 17 19 24 27 28 30 32 33 34 35 36 36 36 37 37 37 37 36
12 14 16 16 13 12 13 15 16 19 18 13 11 12 9 10 9 9 6 7 10 14 16 14 10 9 10 10 9 9 10 9 10 12 14 15 15 15 15 16 17 17 17 17 17 17 19 22 25 26 28 30 32 33 34 35 36 36 36 37 36 36 35
15 16 14 12 10 9 12 15 16 17 18 16 13 11 9 11 9 7 7 10 12 13 13 12 9 8 8 7 4 4 7 9 10 13 15 15 15 16 17 18 18 18 18 18 18 18 17 20 24 26 27 30 32 32 33 34 35 36 36 36 36 35 36
13 13 8 8 9 10 12 14 12 13 13 13 12 9 8 8 6 4 5 8 11 9 7 7 6 5 3 5 6 6 9 11 12 14 14 15 15 16 17 18 18 17 16 15 15 16 17 20 25 28 29 30 31 31 32 33 34 35 35 35 35 35 36
8 8 8 13 16 12 10 8 11 15 9 3 5 3 1 2 5 6 5 5 7 6 5 5 4 5 3 8 8 7 8 9 12 14 14 15 15 16 17 18 17 16 15 15 16 16 18 21 25 28 29 29 30 31 32 33 33 34 35 35 35 36 36
6 6 11 16 13 8 6 3 9 14 11 8 7 9 11 7 1 5 5 6 5 7 8 6 3 3 4 6 5 6 7 8 11 14 14 15 16 16 17 17 16 16 15 15 17 18 20 24 29 31 31 31 31 33 32 32 32 33 34 35 35 36 36
5 9 13 12 2 2 4 1 8 12 11 11 11 9 11 11 6 2 4 5 7 9 8 6 5 2 2 1 2 1 2 6 9 12 13 14 15 15 16 15 15 16 15 14 16 19 24 28 31 32 32 31 30 30 30 31 32 33 34 34 34 35 36
4 8 9 3 5 2 5 1 7 10 8 7 6 6 11 15 13 11 8 8 10 9 6 3 3 2 1 6 9 9 5 4 7 9 10 12 14 13 14 14 13 13 13 12 13 18 24 27 27 28 28 27 27 28 30 32 32 33 34 34 35 35 36
3 3 4 1 4 7 9 4 6 11 9 10 9 7 13 18 15 13 12 12 12 9 4 4 4 6 4 6 11 12 10 5 4 7 7 9 12 13 13 14 14 13 15 16 18 21 24 26 26 27 27 28 27 28 30 31 31 33 34 33 34 35 35
2 2 3 3 5 8 5 1 6 9 7 9 9 4 8 14 13 12 12 12 13 10 7 7 6 8 5 7 10 13 14 9 1 5 4 3 6 8 9 10 12 14 17 20 22 24 25 27 29 29 29 30 29 27 28 29 30 31 31 32 33 34 34
1 2 3 3 3 3 1 3 10 9 6 7 8 4 2 11 14 14 13 12 13 11 10 10 9 5 4 7 8 11 13 11 7 8 9 7 6 6 6 8 9 11 14 15 17 21 23 24 27 28 28 29 28 26 27 28 29 29 29 31 32 33 34
2 2 2 2 3 4 4 11 16 14 9 8 6 2 3 10 16 16 14 13 13 12 12 12 8 1 5 4 5 8 11 10 9 10 10 10 10 9 9 11 12 14 17 18 16 17 17 17 19 22 26 28 26 25 26 27 28 28 29 32 33 33 35
4 4 3 2 3 4 7 13 17 17 15 10 2 3 4 10 15 16 15 14 14 13 12 10 6 6 6 3 4 7 8 9 11 11 11 11 12 12 12 15 18 19 21 21 17 15 13 14 18 23 26 26 25 24 25 25 26 28 31 33 34 35 36
5 5 3 3 3 2 8 14 16 18 14 5 3 4 4 9 13 13 13 14 14 13 11 8 6 7 7 5 6 7 9 10 12 12 11 11 14 15 15 18 22 23 23 22 20 17 15 13 14 20 25 25 23 23 23 24 27 31 33 33 33 34 36
4 4 3 4 3 1 8 13 14 12 7 2 3 4 5 8 11 11 12 13 13 13 12 9 7 7 9 9 9 10 11 12 12 12 11 12 13 16 19 21 22 21 20 21 21 19 20 20 16 14 18 19 18 19 21 23 27 29 28 30 33 34 35
2 3 2 2 2 3 11 13 10 7 7 3 4 6 7 8 10 11 10 10 11 12 12 11 9 9 11 11 11 11 11 12 12 12 12 11 10 12 15 17 19 20 18 18 19 20 22 23 21 16 12 11 8 9 11 14 18 20 20 25 29 31 33
1 1 0 1 2 4 8 8 4 6 6 4 5 7 7 8 10 10 9 10 11 12 13 13 12 11 12 11 11 10 10 11 11 11 11 10 9 10 12 14 18 20 18 16 18 22 25 25 23 19 16 14 10 6 3 2 7 12 16 20 23 27 30
2 3 3 2 2 3 5 5 3 6 7 7 8 9 8 8 9 9 9 11 12 13 14 13 10 10 12 12 12 11 9 9 10 10 10 10 9 10 11 14 18 19 18 18 20 22 24 25 23 20 18 16 14 12 9 4 2 6 11 17 21 25 29
5 5 3 3 3 2 3 4 4 6 8 8 8 8 7 8 10 10 10 11 11 12 13 13 10 10 12 13 13 12 10 9 9 9 9 9 9 10 11 13 17 19 19 19 19 19 21 22 20 19 18 17 15 14 12 9 5 5 8 14 20 24 26
5 2 3 8 6 1 3 3 4 6 8 6 4 5 6 6 8 10 11 12 12 11 12 13 12 11 12 14 14 12 11 10 10 9 8 8 8 9 10 12 16 17 16 14 14 15 16 18 18 17 16 16 14 13 14 13 9 7 8 12 18 21 24
6 5 7 11 8 2 5 3 1 3 6 5 3 3 4 5 7 9 11 11 12 11 12 14 14 12 11 13 13 11 10 10 10 9 8 7 7 9 12 14 15 15 13 12 12 12 12 13 14 14 13 13 14 13 14 14 12 9 7 10 15 19 21
8 7 6 7 5 2 4 4 2 1 4 5 3 3 4 5 7 8 10 10 10 10 11 13 15 14 11 11 11 10 10 10 10 9 9 9 9 9 10 12 14 14 13 12 12 12 12 12 13 14 14 13 13 14 14 15 14 11 8 8 12 15 17
6 5 3 4 4 5 3 3 4 3 3 5 4 2 3 4 4 5 7 9 8 8 9 10 11 13 12 12 11 10 9 9 11 11 10 9 10 10 10 11 13 14 14 13 13 13 14 14 15 15 15 14 14 14 15 15 15 12 9 7 9 11 13
9 10 8 6 5 8 8 4 3 5 3 3 4 3 2 3 3 3 4 6 6 7 8 9 9 10 11 11 11 10 8 9 12 13 13 11 11 11 11 10 11 13 14 14 14 14 13 13 13 12 12 12 12 13 14 15 15 13 10 7 7 9 11
14 14 11 8 9 11 9 5 3 4 4 1 3 4 2 2 4 4 5 6 5 4 6 8 9 11 10 9 9 10 9 8 11 14 15 14 12 11 9 9 9 11 11 10 10 9 9 9 10 10 10 10 10 11 12 13 13 12 9 6 6 8 10
15 14 10 9 12 14 11 9 6 4 3 3 1 4 4 1 1 4 6 7 7 6 6 7 10 14 13 9 8 9 8 8 10 12 12 13 12 10 7 7 7 6 6 6 5 5 7 9 10 10 10 9 9 9 9 10 11 10 8 7 6 9 12
Wind_Direction
216 204 197 182 186 189 180 188 205 207 144 147 213 241 222 120 188 235 228 240 263 269 269 274 131 177 196 197 203 203 202 200 197 199 199 201 201 196 196 198 196 194 190 190 191 191 190 188 188 189 189 190 191 191 192 193 195 195 196 197 198 200 201
253 226 201 203 197 174 155 198 198 136 99 169 201 233 266 186 212 254 269 239 236 214 247 250 127 162 196 199 200 204 202 194 193 198 196 199 200 197 200 200 195 191 188 188 190 192 192 191 190 190 190 191 191 192 192 193 194 195 196 198 199 200 200
298 293 213 217 211 198 204 196 158 145 174 200 184 201 227 212 227 271 287 259 225 200 223 217 179 181 192 199 202 205 202 193 194 199 197 198 198 198 200 197 193 191 190 190 190 192 193 192 191 191 191 191 191 193 194 194 195 197 197 198 199 200 201
324 310 210 212 218 210 209 185 157 171 193 195 186 188 190 196 225 247 280 283 239 222 210 187 197 201 186 189 199 205 203 196 195 198 198 198 196 196 196 194 193 193 192 192 191 191 192 191 191 190 189 190 191 193 194 195 197 197 198 199 199 200 201
323 261 206 207 210 210 207 198 190 193 188 176 198 211 151 160 200 203 230 264 255 248 211 183 199 207 187 183 191 201 203 197 195 198 197 195 194 195 195 192 193 193 191 191 191 191 190 189 189 188 189 190 192 193 194 195 196 196 198 199 200 201 201
309 253 267 293 298 280 237 216 208 205 194 147 183 226 210 164 196 181 186 248 263 251 203 186 197 204 195 189 191 196 201 198 197 199 197 194 193 194 195 193 192 191 190 189 188 187 186 186 187 188 189 191 191 192 194 195 195 196 198 200 201 202 202
267 263 270 284 288 283 267 247 221 205 196 164 186 218 213 187 211 178 151 258 269 251 207 199 209 212 199 191 192 196 200 200 199 199 198 193 192 194 194 192 191 188 189 187 182 181 183 185 187 188 189 190 191 192 193 194 195 197 199 200 201 202 202
277 270 265 266 269 264 271 278 252 218 213 201 200 205 180 184 213 193 208 260 266 268 228 209 229 243 215 185 192 199 201 202 202 201 198 193 192 194 193 191 190 187 185 182 179 180 182 184 186 188 189 190 191 192 193 193 196 198 199 200 201 201 202
296 277 259 278 322 7 346 300 290 271 239 212 199 132 155 208 208 182 196 241 253 275 290 263 276 289 261 211 204 207 205 203 203 199 193 191 192 193 190 188 184 181 178 178 181 183 183 184 185 187 189 190 191 192 193 194 196 198 199 199 200 200 202
264 252 245 290 330 337 314 293 291 299 281 233 208 146 170 223 206 176 201 236 259 286 289 281 280 279 271 249 225 218 214 207 200 191 185 190 192 191 188 184 179 178 179 182 184 184 185 184 185 187 189 190 191 192 194 195 197 197 197 198 199 200 202
253 264 285 289 287 287 287 291 292 296 296 275 236 182 188 201 174 191 218 229 263 273 263 259 261 262 270 267 241 224 220 209 196 186 183 185 188 187 185 180 177 178 179 183 185 185 186 186 186 187 188 190 191 192 194 196 196 196 196 198 199 200 201
259 268 281 283 280 273 269 277 284 282 282 281 254 224 202 155 154 225 241 195 222 254 257 254 256 260 267 262 238 221 216 204 188 181 180 182 183 182 179 177 177 179 181 183 184 185 186 186 186 187 189 190 192 193 194 195 195 196 196 197 198 200 200
280 277 278 275 266 260 261 264 269 273 273 267 251 240 206 158 180 226 222 181 209 242 253 252 249 252 256 250 234 222 214 193 170 171 177 181 180 175 176 178 179 181 182 182 183 185 185 185 185 186 188 191 192 193 195 194 194 195 195 195 197 198 200
294 286 279 267 260 273 284 276 267 268 267 256 249 244 208 179 193 209 186 191 218 237 245 249 255 259 254 246 240 224 201 178 166 171 178 181 179 177 178 180 181 185 185 184 183 183 182 183 185 186 189 191 192 193 193 193 194 194 194 194 196 197 200
299 293 289 285 296 303 289 279 286 294 276 246 232 229 211 192 187 177 170 202 234 250 252 251 272 304 266 215 207 207 197 182 172 175 180 180 178 179 180 180 183 185 184 182 180 180 183 186 186 188 190 191 191 192 192 192 193 192 192 193 195 198 201
291 298 329 321 318 312 282 282 327 332 322 247 189 149 82 223 191 158 149 203 244 284 302 274 294 344 284 216 201 200 202 187 175 177 180 180 179 180 182 183 185 183 179 177 178 182 187 188 188 191 191 190 191 193 193 192 191 190 191 193 195 198 201
279 302 327 318 317 314 273 293 357 345 350 25 51 56 32 358 210 160 185 225 264 306 305 278 271 331 285 239 208 196 198 191 184 182 180 180 180 181 182 183 183 180 178 179 181 184 186 187 191 193 192 190 193 194 192 189 189 189 191 194 196 199 202
287 309 316 309 297 170 238 149 30 354 354 25 42 56 33 9 15 33 244 259 302 307 285 257 238 245 273 305 357 332 210 199 195 188 184 182 182 181 183 185 184 182 181 182 182 185 188 190 192 193 193 195 196 193 190 189 189 189 191 194 197 199 202
284 308 321 313 157 190 282 340 27 355 347 12 22 53 40 23 13 359 340 323 316 301 278 288 301 273 95 68 43 16 342 246 206 192 188 184 180 179 179 180 182 181 179 177 178 185 189 190 190 191 193 195 193 192 191 190 190 191 192 195 197 200 202
280 308 334 222 212 301 312 304 352 354 355 355 353 20 29 19 9 356 345 329 319 314 320 357 330 268 273 48 41 16 352 316 212 187 191 190 184 181 179 180 182 180 178 178 181 184 186 185 186 189 190 190 190 191 192 192 192 193 194 196 198 200 202
241 287 303 280 284 313 321 314 345 342 330 330 337 355 12 8 6 356 343 331 329 334 347 346 304 269 299 26 22 3 355 348 355 135 132 155 166 167 168 169 170 171 176 180 179 179 179 182 187 189 188 188 188 189 191 193 194 194 196 198 200 201 202
249 339 322 316 300 282 265 338 324 302 262 283 295 261 344 2 0 354 347 341 338 346 355 339 306 283 22 28 0 350 355 359 29 74 81 81 90 106 123 128 132 143 154 164 171 175 178 184 188 188 185 184 185 187 190 194 195 196 198 201 201 202 203
296 320 300 292 266 254 311 331 318 307 304 300 281 207 41 359 352 351 350 347 349 359 360 339 322 64 81 38 345 351 358 7 33 61 72 78 81 80 89 105 117 127 135 140 149 159 166 176 182 183 184 184 184 187 191 193 195 198 201 203 203 202 203
251 258 260 264 251 266 317 325 316 310 311 309 297 102 40 350 346 348 348 350 357 4 0 348 2 69 87 72 6 360 4 20 37 49 60 72 81 80 80 91 100 108 115 118 119 124 138 161 177 181 181 182 185 191 193 194 198 203 205 205 204 204 205
244 241 250 276 254 270 317 319 314 309 306 315 60 64 5 340 343 346 350 356 357 358 2 10 28 50 64 69 45 24 27 38 39 39 46 58 71 78 81 86 92 95 96 96 96 93 97 118 157 177 180 181 185 190 191 195 203 209 209 207 205 205 205
238 223 242 279 260 324 333 322 317 321 330 42 40 359 340 341 343 343 351 0 360 358 2 8 19 39 49 53 49 39 37 42 40 36 38 44 56 70 76 79 85 89 88 87 86 81 78 83 100 143 168 175 183 189 192 201 209 212 211 209 207 206 204
232 217 231 278 268 346 346 334 330 2 30 17 329 337 341 344 348 348 352 360 3 3 1 352 359 31 42 38 40 38 36 40 41 36 35 34 39 57 68 72 79 84 83 80 78 73 71 71 73 85 109 124 146 173 192 211 218 219 218 213 209 207 205
2 193 229 326 302 337 357 355 17 59 49 3 344 357 353 350 355 355 352 354 358 8 5 347 349 21 34 30 32 32 29 35 39 37 36 32 31 47 62 70 77 80 81 78 73 67 63 62 62 63 68 74 77 80 83 224 225 223 223 219 214 210 208
303 274 273 331 349 4 22 29 65 75 57 27 10 8 4 1 358 353 351 348 350 6 6 344 341 17 25 23 27 26 21 27 34 36 36 30 27 38 51 62 70 75 77 76 70 63 58 57 57 54 55 58 53 40 25 4 270 232 222 216 213 212 210
288 264 265 2 22 73 65 42 53 69 57 34 11 4 8 8 357 349 347 342 344 2 4 346 345 13 19 19 24 20 13 17 22 27 32 29 29 35 42 52 61 67 69 69 68 63 57 53 51 48 47 47 41 29 20 9 331 276 236 216 212 211 210
305 300 356 349 341 152 121 61 54 74 70 57 22 358 3 12 4 349 339 337 342 357 1 350 349 4 16 19 18 13 10 11 10 13 19 19 22 31 40 50 58 62 64 62 62 61 54 46 41 37 35 35 31 23 19 13 353 309 263 230 217 212 210
306 301 314 320 309 208 136 107 86 94 88 87 73 7 3 21 16 349 335 337 344 353 359 353 344 350 11 19 15 9 6 3 360 3 7 6 12 27 39 49 56 60 61 62 62 60 53 44 38 30 24 24 21 14 12 10 1 342 298 250 227 218 213
299 290 304 325 312 237 117 83 15 17 105 104 81 20 3 22 24 355 335 335 341 351 2 355 339 338 357 13 15 10 2 354 351 351 352 354 360 12 32 49 56 57 59 60 59 53 44 36 31 24 19 15 9 5 4 1 359 354 328 276 244 229 219
281 267 298 2 337 292 297 348 352 0 94 116 101 35 354 6 25 359 325 318 328 350 3 354 335 331 341 356 7 10 4 350 341 338 342 349 352 359 20 45 54 54 53 51 48 44 36 28 22 17 14 9 4 359 357 354 352 350 337 300 260 238 222
272 270 284 306 296 280 278 280 333 360 21 117 128 99 28 335 338 356 324 305 314 344 353 346 336 328 331 345 357 358 357 349 338 334 338 341 341 349 7 31 44 46 44 40 39 40 35 27 21 16 12 8 1 354 350 348 346 343 334 305 259 232 217
277 278 287 294 284 278 281 290 333 357 359 358 159 139 114 327 327 3 351 314 304 331 339 334 332 327 326 340 352 347 344 345 337 333 337 341 343 351 9 28 40 45 44 41 38 39 38 35 32 26 19 10 358 346 339 338 337 334 324 298 244 213 203
274 277 284 287 283 283 290 299 300 300 317 317 255 163 156 196 332 21 1 329 315 326 328 326 332 332 329 334 344 336 328 333 334 329 329 336 344 352 12 32 42 54 68 68 61 54 52 51 49 42 31 19 5 351 337 331 328 323 311 288 239 201 188